[[{"header":{"parameterUnit":"m.s-1","parameterCategory":1,"la1":30.2991,"la2":30.254,"lo1":-89.0895,"lo2":-89.0444,"dy":0.0017,"dx":0.0017,"nx":28,"ny":28,"refTime":"2023-07-20T21:00:00:Z","depth":0,"parameterNumber":2,"parameterNumberName":"U-component_of_WINDS"},"data":[0,0,0,0,0,0,0,0,0,0,0,0,0,0,0,0,0,0,0,0,0,0,0,0,0,0,0,0,0,0,0,0,0,0,0,0,0,0,0,0,0,0,0,0,0,0,0,0,0,0,0,0,0,0,0,0,0,0,1.9972,1.9971,0,1.9965,1.9965,1.9965,1.9955,1.9955,1.9955,1.9955,1.9949,1.9949,1.9949,0,0,0,0,0,0,0,0,0,0,0,0,0,1.9976,1.9976,1.9972,1.9971,1.9971,1.9965,1.9965,1.9965,1.9955,1.9955,1.9955,1.9955,1.9949,1.9949,1.9949,0,0,0,0,0,0,0,0,0,0,0,0,0,1.9972,1.9976,1.9972,1.9966,1.9965,1.9965,1.9965,1.9965,1.9955,1.9955,1.9955,1.9955,1.9949,1.9949,1.9949,1.9954,0,0,1.9949,1.9949,0,0,0,0,0,0,0,0,1.9973,1.9972,1.9967,1.9966,1.9966,1.9961,1.9964,1.9961,1.9955,1.9959,1.9955,1.9955,1.9953,1.9952,1.9952,1.9953,1.9953,1.9949,1.9949,1.9949,1.9949,0,0,0,0,0,0,0,1.9973,1.9972,1.9969,1.9967,1.9966,1.9964,1.9963,1.9964,1.9958,1.9959,1.9958,1.9957,1.9952,1.9952,1.9952,1.9953,1.9949,1.9949,1.9949,1.9949,1.9959,1.9959,0,0,0,0,0,0,1.9974,1.9973,1.9969,1.9969,1.9969,1.9964,1.9963,1.9963,1.9957,1.9956,1.9958,1.9957,1.9952,1.9952,1.9951,1.9957,1.9949,1.9949,1.9949,1.9958,1.9959,1.9959,0,0,0,0,0,0,1.9974,1.9974,1.9969,1.9971,1.997,1.9964,1.9964,1.9963,1.9962,1.9957,1.9956,1.9958,1.9952,1.9951,1.9953,1.9957,1.9949,1.9948,1.9958,1.9959,1.9959,1.9969,0,0,0,0,0,0,1.9974,1.9974,1.9976,1.9971,1.997,1.9971,1.9964,1.9963,1.9962,1.9961,1.9957,1.9956,1.9952,1.9953,1.9953,1.9957,1.9948,1.9958,1.9958,1.9959,1.9968,1.997,1.9971,0,0,0,0,0,1.9974,1.9979,1.9976,1.9975,1.9972,1.9971,1.9971,1.9966,1.9962,1.9964,1.9961,1.9956,1.9956,1.9954,1.9953,1.9957,1.9957,1.9958,1.9959,1.9968,1.9969,1.9971,0,0,0,0,0,0,1.9984,1.9978,1.9975,1.9977,1.9975,1.997,1.9972,1.9968,1.9967,1.9966,1.996,1.9959,1.9962,1.9959,1.9956,1.9962,1.9956,1.9957,1.9963,1.9965,1.9966,1.9967,1.9948,0,0,0,0,0,1.9987,1.9987,1.9981,1.9984,1.9983,1.9978,1.9977,1.9974,1.9971,1.997,1.9967,1.9965,1.9964,1.9964,1.9964,1.9968,1.9967,1.997,1.9972,1.9973,1.9973,1.9976,1.9977,1.9961,1.9961,1.9961,0,0,1.9992,1.9988,1.9989,1.9986,1.9984,1.9984,1.9977,1.9978,1.9978,1.997,1.9972,1.9969,1.9967,1.997,1.9971,1.9968,1.9978,1.9973,1.9974,1.9975,1.9977,1.9978,1.998,1.9962,1.9961,1.9961,0,0,2.0001,1.9999,2.0001,1.9999,1.9996,1.9992,1.9993,1.9988,1.9986,1.9988,1.9982,1.9982,1.9982,1.998,1.9979,1.9989,1.9984,1.9989,1.9995,1.9998,1.9999,2.0,2.0004,2.0006,1.9989,1.9989,1.9989,0,2.0008,2.0009,2.0003,2.0004,2.0003,1.9996,1.9998,1.9997,1.9993,1.9993,1.999,1.9989,1.9987,1.999,1.9992,1.9991,1.9992,1.9989,1.9999,2.0001,2.0002,2.0005,2.0006,1.999,1.999,1.999,1.999,0,2.0017,2.0018,2.002,2.0017,2.0016,2.0018,2.0013,2.0013,2.0009,2.0006,2.0008,2.0005,2.0004,2.0004,2.0,2.0006,2.0005,2.0001,1.9995,2.0004,2.0007,2.0008,1.9991,1.999,1.999,1.999,0,0,2.0033,2.0027,2.0028,2.0027,2.0023,2.0023,2.0025,2.0023,2.0024,2.0022,2.0023,2.0023,2.0019,2.0018,2.0014,2.0016,2.0025,2.0012,2.0012,2.0015,2.0032,2.0035,2.0037,2.0022,2.0022,2.0022,2.0032,0,2.0042,2.0045,2.004,2.0044,2.0044,2.0037,2.0039,2.0036,2.0034,2.0034,2.003,2.0031,2.0025,2.0025,2.0026,2.0023,2.0028,2.0022,2.0023,2.0024,2.0025,2.0039,2.0042,2.0052,2.0033,2.0033,2.0034,0,2.0054,2.0052,2.0056,2.0052,2.0052,2.0054,2.0052,2.0052,2.005,2.0047,2.0046,2.0042,2.0044,2.0038,2.004,2.0037,2.0037,2.0035,2.0035,2.0036,2.0029,2.004,2.0055,2.0057,2.0035,2.0035,2.0035,0,2.0066,2.0065,2.0067,2.0066,2.0061,2.0062,2.0061,2.0058,2.0057,2.0056,2.0056,2.0055,2.0055,2.0054,2.005,2.0046,2.0053,2.0046,2.0051,2.0051,2.0053,2.0053,2.0069,2.0053,2.0053,2.0053,2.0052,0,2.0077,2.008,2.0072,2.0074,2.0077,2.0071,2.0074,2.0071,2.0069,2.007,2.0064,2.0065,2.0059,2.0059,2.0056,2.0058,2.0058,2.0057,2.0056,2.0057,2.0058,2.0058,2.0057,2.0053,2.0053,2.0053,2.0053,0,2.0091,2.0086,2.0088,2.0083,2.0082,2.0085,2.0081,2.0082,2.0079,2.008,2.008,2.0075,2.0075,2.0071,2.007,2.0068,2.0072,2.007,2.0073,2.0073,2.0078,2.0078,2.0095,2.0097,2.0078,2.0079,2.0079,0,2.0099,2.0101,2.0096,2.0096,2.0095,2.0095,2.0095,2.0089,2.0089,2.0086,2.0088,2.0088,2.0087,2.0088,2.0085,2.0084,2.0082,2.0088,2.0082,2.0084,2.0083,2.0083,2.0083,2.009,2.009,2.009,2.009,0,2.0113,2.0111,2.0111,2.011,2.0109,2.0108,2.0107,2.0107,2.0101,2.0101,2.0101,2.0101,2.01,2.01,2.0099,2.0097,2.0093,2.0092,2.0093,2.0095,2.0097,2.0097,2.0077,2.0092,2.0092,2.0091,2.0091,2.0091,2.0125,2.0127,2.0124,2.0124,2.0122,2.0121,2.0122,2.0118,2.0118,2.0118,2.0114,2.0115,2.0112,2.011,2.0109,2.011,2.0107,2.0109,2.0109,2.011,2.0111,2.0097,2.011,2.011,2.011,2.0109,2.0109,0,2.014,2.0138,2.0138,2.0136,2.0136,2.0131,2.0129,2.013,2.013,2.0128,2.0128,2.0129,2.0128,2.0125,2.0124,2.0126,2.0124,2.0126,2.0126,2.0126,2.0113,2.0113,2.0128,2.0128,2.0128,2.0128,2.0128,2.0128,2.0148,2.015,2.0147,2.0149,2.0147,2.0148,2.0147,2.0146,2.0144,2.0145,2.0145,2.0142,2.014,2.0139,2.0139,2.0138,2.0138,2.0142,2.014,2.0128,2.0127,2.0125,2.0124,2.0141,2.0142,2.0152,2.0152,2.0152]},{"header":{"parameterUnit":"m.s-1","parameterCategory":1,"la1":30.2991,"la2":30.254,"lo1":-89.0895,"lo2":-89.0444,"dy":0.0017,"dx":0.0017,"nx":28,"ny":28,"refTime":"2023-07-20T21:00:00:Z","depth":0,"parameterNumber":3,"parameterNumberName":"V-component_of_WINDS"},"data":[0,0,0,0,0,0,0,0,0,0,0,0,0,0,0,0,0,0,0,0,0,0,0,0,0,0,0,0,0,0,0,0,0,0,0,0,0,0,0,0,0,0,0,0,0,0,0,0,0,0,0,0,0,0,0,0,0,0,0.3661,0.3661,0,0.3655,0.3655,0.3655,0.367,0.367,0.3671,0.3671,0.3665,0.3665,0.3664,0,0,0,0,0,0,0,0,0,0,0,0,0,0.3685,0.3684,0.3661,0.3661,0.3661,0.3655,0.3655,0.3655,0.367,0.367,0.3671,0.3672,0.3666,0.3665,0.3664,0,0,0,0,0,0,0,0,0,0,0,0,0,0.3676,0.3684,0.3661,0.3667,0.3668,0.3655,0.3655,0.3655,0.367,0.367,0.3671,0.3672,0.3666,0.3665,0.3664,0.3644,0,0,0.3661,0.3661,0,0,0,0,0,0,0,0,0.3676,0.3675,0.3667,0.3667,0.3668,0.3664,0.3661,0.3651,0.367,0.3669,0.3671,0.3672,0.3664,0.3664,0.3661,0.3644,0.3643,0.3661,0.3661,0.366,0.366,0,0,0,0,0,0,0,0.3677,0.3675,0.3658,0.3666,0.3667,0.3671,0.367,0.3659,0.3663,0.3669,0.367,0.3669,0.3665,0.3662,0.3661,0.3643,0.3661,0.366,0.366,0.3659,0.3608,0.3607,0,0,0,0,0,0,0.3677,0.3676,0.3659,0.3658,0.3674,0.367,0.3669,0.3664,0.3663,0.3663,0.3669,0.367,0.3663,0.3662,0.3661,0.3636,0.366,0.3659,0.3659,0.3609,0.3608,0.3607,0,0,0,0,0,0,0.3677,0.3675,0.3659,0.3667,0.3665,0.3668,0.3663,0.3664,0.3661,0.3663,0.3663,0.3665,0.3663,0.3662,0.3648,0.3636,0.3659,0.3658,0.361,0.3609,0.3608,0.3587,0,0,0,0,0,0,0.3678,0.3675,0.3668,0.3667,0.3665,0.3646,0.3662,0.3663,0.3659,0.3661,0.3659,0.366,0.3664,0.3649,0.3647,0.3635,0.3657,0.3611,0.3609,0.3608,0.3589,0.3586,0.3583,0,0,0,0,0,0.3679,0.3663,0.3667,0.3665,0.3656,0.3645,0.3644,0.3649,0.3658,0.3651,0.3651,0.366,0.3638,0.3647,0.3645,0.3633,0.3612,0.361,0.3608,0.3591,0.3586,0.3583,0,0,0,0,0,0,0.3662,0.3663,0.3668,0.3651,0.3648,0.3648,0.3639,0.3645,0.3639,0.3641,0.3648,0.3647,0.3631,0.3631,0.3642,0.3613,0.3626,0.3624,0.3614,0.361,0.3607,0.3607,0.3657,0,0,0,0,0,0.3657,0.3648,0.3649,0.3634,0.3633,0.3636,0.3631,0.3636,0.3633,0.3631,0.3631,0.3628,0.362,0.3615,0.3608,0.3589,0.3589,0.358,0.3577,0.3574,0.3572,0.356,0.3556,0.3601,0.3601,0.3601,0,0,0.3645,0.3644,0.3639,0.3631,0.3629,0.362,0.3635,0.3624,0.3617,0.363,0.3616,0.3616,0.3613,0.3596,0.3588,0.3595,0.3559,0.3572,0.357,0.3569,0.3558,0.3554,0.355,0.36,0.36,0.36,0,0,0.3619,0.3618,0.3605,0.3603,0.3599,0.3602,0.3598,0.3597,0.3597,0.3584,0.3592,0.3584,0.3571,0.3568,0.3565,0.3536,0.3543,0.3534,0.3517,0.3506,0.3502,0.3499,0.3488,0.3484,0.3532,0.3532,0.3532,0,0.3605,0.3592,0.3598,0.3587,0.3582,0.3593,0.3579,0.3577,0.3571,0.3568,0.3576,0.3559,0.3557,0.3539,0.3532,0.353,0.3526,0.3534,0.3503,0.3499,0.3497,0.3486,0.3482,0.3531,0.3531,0.3531,0.3531,0,0.3574,0.3565,0.3555,0.3548,0.3543,0.3531,0.3535,0.3529,0.3533,0.3534,0.352,0.3518,0.3511,0.3507,0.3511,0.3489,0.3493,0.3501,0.3515,0.3491,0.3481,0.3477,0.3529,0.3529,0.353,0.353,0,0,0.3538,0.3535,0.3531,0.3528,0.3524,0.3517,0.3505,0.3497,0.3491,0.3487,0.3477,0.3465,0.3472,0.3469,0.3473,0.3463,0.344,0.3473,0.3473,0.3466,0.3413,0.3406,0.3402,0.3444,0.3444,0.3443,0.3413,0,0.3511,0.349,0.3495,0.3474,0.3465,0.3474,0.3463,0.346,0.3461,0.3452,0.3453,0.3444,0.3456,0.3453,0.3444,0.3444,0.3429,0.3447,0.3434,0.3433,0.3433,0.3397,0.3389,0.3361,0.341,0.3409,0.3409,0,0.3478,0.3471,0.3449,0.3447,0.3443,0.3433,0.3426,0.3418,0.3414,0.3415,0.3411,0.3417,0.3404,0.3418,0.34,0.3412,0.3407,0.3406,0.3405,0.3404,0.3419,0.3393,0.3353,0.3348,0.3403,0.3403,0.3404,0,0.3452,0.3438,0.3423,0.342,0.3417,0.341,0.3408,0.3405,0.3399,0.3393,0.339,0.3382,0.3378,0.3372,0.3375,0.3385,0.3356,0.3371,0.3356,0.3356,0.3349,0.3349,0.3306,0.3347,0.3347,0.3348,0.3348,0,0.3421,0.3407,0.3411,0.3402,0.3386,0.3391,0.3375,0.3375,0.3372,0.3362,0.337,0.3361,0.3366,0.3357,0.336,0.3344,0.3342,0.3342,0.3343,0.3341,0.3341,0.3337,0.3339,0.3346,0.3347,0.3347,0.3347,0,0.3389,0.3392,0.3376,0.3373,0.3373,0.3361,0.3359,0.335,0.3351,0.3338,0.3336,0.3337,0.3327,0.333,0.3319,0.3321,0.33,0.3304,0.3301,0.3302,0.3287,0.3288,0.3239,0.3233,0.3279,0.3279,0.3278,0,0.3369,0.3358,0.3355,0.3349,0.3346,0.3337,0.3331,0.3336,0.3329,0.3324,0.3315,0.3305,0.3298,0.3281,0.3281,0.3272,0.3275,0.3259,0.3274,0.3272,0.3273,0.3274,0.3272,0.3255,0.3255,0.3254,0.3254,0,0.3333,0.3334,0.3326,0.3317,0.331,0.3304,0.3299,0.3293,0.3297,0.329,0.3279,0.3273,0.3262,0.3252,0.3244,0.3242,0.3248,0.3249,0.3245,0.3243,0.3241,0.3241,0.3292,0.325,0.3251,0.3251,0.3251,0.3251,0.3305,0.3296,0.3291,0.3282,0.3278,0.3272,0.3263,0.3263,0.3254,0.3245,0.3248,0.3235,0.3231,0.3221,0.3218,0.3208,0.3214,0.3208,0.3207,0.3205,0.3203,0.3243,0.3206,0.3206,0.3207,0.3207,0.3207,0,0.3268,0.3266,0.3257,0.3248,0.324,0.3247,0.3241,0.3234,0.3223,0.3218,0.321,0.3197,0.3188,0.3187,0.3177,0.3169,0.3172,0.3167,0.3167,0.3166,0.3198,0.3202,0.3164,0.3164,0.3164,0.3164,0.3164,0.3164,0.3248,0.3232,0.3232,0.3214,0.3212,0.3199,0.3195,0.319,0.3186,0.3171,0.3163,0.3162,0.3159,0.3149,0.314,0.314,0.3136,0.3129,0.313,0.316,0.3164,0.3168,0.3171,0.3128,0.3128,0.3098,0.3098,0.3098]}]]